Home > Weather > Biel > Past weeks

Flag for Switzerland Past Weather in Biel, Switzerland — Yesterday and Last 2 Weeks

Now
66 °F

Mild.


Feels Like: 66 °F
Forecast: 55 / 68 °F
Wind: 2 mph from Northeast

Location: Grenchen

Current Time: Jul 2, 2016 at 12:32:44 AM

Latest Report: Jul 1, 2016 at 11:00 PM


Visibility: N/A

Pressure: 30.01 "Hg

Humidity: 88%

Dew Point: 62 °F

Location of BielLocation

Past Weather in Biel — Graph

°F

Biel Temperature Yesterday

Maximum temperature yesterday: 82 °F (at 5:00 PM)
Minimum temperature yesterday: 59 °F (at 6:00 AM)
Average temperature yesterday: 69 °F

High & Low Weather Summary for the Past Weeks

 TemperatureHumidityPressure
High90 °F (Jun 23, 6:00 PM)100% (Jun 18, 3:00 AM)30.29 "Hg (Jun 18, 3:00 AM)
Low48 °F (Jun 20, 6:00 AM)39% (Jun 24, 2:00 PM)29.70 "Hg (Jun 16, 11:00 PM)
Average66 °F76%30.08 "Hg
* Reported Jun 16 11:00 PM — Jul 1 11:00 PM, Biel, Weather by CustomWeather, © 2016

Note: Actual official high and low records may vary slightly from our data, if they occured in-between our weather recording intervals... More about our weather records

Advertising

Biel Weather History for the Previous 24 Hours

Scroll right to see more
 ConditionsComfort  
Time TempWeatherWind HumidityBarometerVisibility
11:00 PM
Fri, Jul 1
66 °FMild.2 mph88%30.01 "HgN/A
10:00 PM70 °FMild.1 mph80%29.99 "HgN/A
9:00 PM74 °FMild.1 mph67%29.96 "HgN/A
8:00 PM80 °FWarm.3 mph52%29.94 "HgN/A
7:00 PM80 °FWarm.5 mph49%29.94 "HgN/A
6:00 PM80 °FWarm.9 mph48%29.95 "HgN/A
5:00 PM82 °FWarm.13 mph45%29.95 "HgN/A
4:00 PM80 °FWarm.10 mph46%29.97 "HgN/A
3:00 PM79 °FWarm.8 mph52%29.99 "HgN/A
2:00 PM77 °FWarm.3 mph56%30.01 "HgN/A
1:00 PM76 °FMild.7 mph57%30.03 "HgN/A
12:00 PM74 °FMild.5 mph57%30.05 "HgN/A
11:00 AM71 °FMild.2 mph70%30.07 "HgN/A
10:00 AM67 °FMild.2 mph86%30.09 "HgN/A
9:00 AM63 °FMild.5 mph99%30.10 "HgN/A
8:00 AM61 °FCool.2 mph99%30.10 "HgN/A
7:00 AM60 °FCool.3 mph99%30.09 "HgN/A
6:00 AM59 °FCool.2 mph99%30.09 "HgN/A
5:00 AM60 °FCool.2 mph100%30.09 "HgN/A
4:00 AM60 °FCool.1 mph98%30.09 "HgN/A
3:00 AM61 °FCool.2 mph98%30.09 "HgN/A
2:00 AM60 °FCool.1 mph99%30.09 "HgN/A
1:00 AM60 °FCool.2 mph96%30.09 "HgN/A
12:00 AM62 °FCool.1 mph97%30.09 "HgN/A
Weather by CustomWeather, © 2016

See weather overviewHow to use our weather pages